| time (UTC) | temp F | wind direction | speed knots | gust knots | rain 1hr in | rain 24hr in | rain mn in | humidity % | barometer mb |
| 20260502123051 | 54 | 121 | 2.6 | 8.7 | 0.00 | 0.00 | 0.00 | 90 | 1020.1 |
| 20260502121547 | 54 | 122 | 2.6 | 8.7 | 0.00 | 0.00 | 0.00 | 90 | 1019.9 |
| 20260502114556 | 54 | 79 | 1.7 | 8.7 | 0.00 | 0.00 | 0.00 | 91 | 1019.3 |
| 20260502113053 | 55 | 99 | 1.7 | 7.8 | 0.00 | 0.00 | 0.00 | 91 | 1019.2 |
| 20260502111550 | 55 | 69 | 1.7 | 6.1 | 0.00 | 0.00 | 0.00 | 91 | 1019.1 |
| 20260502110054 | 55 | 71 | 0.9 | 5.2 | 0.00 | 0.00 | 0.00 | 91 | 1019.0 |
| 20260502104549 | 56 | 0 | 1.7 | 8.7 | 0.00 | 0.00 | 0.00 | 91 | 1018.7 |
| 20260502103101 | 56 | 0 | 2.6 | 10.4 | 0.00 | 0.00 | 0.00 | 91 | 1018.4 |
| 20260502101600 | 56 | 87 | 0.9 | 6.1 | 0.00 | 0.00 | 0.00 | 90 | 1018.4 |
| 20260502100125 | 56 | 97 | 1.7 | 10.4 | 0.00 | 0.00 | 0.00 | 90 | 1018.2 |
| 20260502070052 | 56 | 94 | 3.5 | 7.8 | 0.00 | 0.00 | 0.00 | 92 | 1016.8 |
| 20260502064555 | 57 | 129 | 3.5 | 11.3 | 0.00 | 0.00 | 0.00 | 92 | 1016.8 |
| 20260502063049 | 57 | 61 | 3.5 | 8.7 | 0.00 | 0.00 | 0.00 | 92 | 1016.8 |
| 20260502061558 | 57 | 61 | 0.9 | 6.1 | 0.00 | 0.00 | 0.00 | 91 | 1016.7 |
| 20260502060049 | 57 | 118 | 2.6 | 8.7 | 0.00 | 0.00 | 0.00 | 91 | 1016.9 |
| 20260502054552 | 57 | 100 | 3.5 | 11.3 | 0.00 | 0.00 | 0.00 | 91 | 1016.9 |
| 20260502053102 | 57 | 102 | 4.3 | 14.8 | 0.00 | 0.00 | 0.00 | 91 | 1016.8 |
| 20260502051549 | 0 | 0.0 | 0.0 | 0.00 | 0.00 | 0.00 | 1016.7 | ||
| 20260502050052 | 0 | 0.0 | 0.0 | 0.00 | 0.00 | 0.00 | 1016.4 | ||
| 20260502044545 | 0 | 0.0 | 0.0 | 0.00 | 0.00 | 0.00 | 1016.2 | ||
| 20260502043055 | 0 | 0.0 | 0.0 | 0.00 | 0.00 | 0.00 | 1016.1 | ||
| 20260502041554 | 0 | 0.0 | 0.0 | 0.00 | 0.00 | 0.00 | 1015.9 | ||
| 20260502040056 | 0 | 0.0 | 0.0 | 0.00 | 0.00 | 0.00 | 1015.7 | ||
| 20260502034550 | 0 | 0.0 | 0.0 | 0.00 | 0.00 | 0.00 | 1015.4 | ||
| 20260502033048 | 0 | 0.0 | 0.0 | 0.00 | 0.00 | 0.00 | 1015.2 | ||
| 20260502031549 | 0 | 0.0 | 0.0 | 0.00 | 0.00 | 0.00 | 1015.0 | ||
| 20260502030052 | 0 | 0.0 | 0.0 | 0.00 | 0.00 | 0.00 | 1014.7 | ||
| 20260502024600 | 0 | 0.0 | 0.0 | 0.00 | 0.00 | 0.00 | 1014.5 | ||
| 20260502023051 | 0 | 0.0 | 0.0 | 0.00 | 0.00 | 0.00 | 1014.5 | ||
| 20260502021551 | 0 | 0.0 | 0.0 | 0.00 | 0.00 | 0.00 | 1014.0 | ||
| 20260502020052 | 0 | 0.0 | 0.0 | 0.00 | 0.00 | 0.00 | 1013.6 | ||
| 20260502014545 | 0 | 0.0 | 0.0 | 0.00 | 0.00 | 0.00 | 1013.2 | ||
| 20260502013052 | 0 | 0.0 | 0.0 | 0.00 | 0.00 | 0.00 | 1013.1 | ||
| 20260502011550 | 0 | 0.0 | 0.0 | 0.00 | 0.00 | 0.00 | 1012.7 | ||
| 20260502010057 | 0 | 0.0 | 0.0 | 0.00 | 0.00 | 0.00 | 1012.4 | ||
| 20260502004605 | 61 | 4.3 | 9.6 | 0.00 | 0.00 | 0.00 | 95 | 1012.2 | |
| 20260502003050 | 61 | 111 | 6.1 | 13.0 | 0.00 | 0.00 | 0.00 | 96 | 1011.9 |
| 20260502001551 | 61 | 95 | 4.3 | 10.4 | 0.00 | 0.00 | 0.00 | 95 | 1012.1 |
| 20260502000054 | 61 | 148 | 5.2 | 13.0 | 0.00 | 0.00 | 0.00 | 95 | 1011.9 |
| 20260501234556 | 62 | 101 | 6.1 | 13.9 | 0.00 | 0.00 | 0.00 | 95 | 1012.0 |
| 20260501233102 | 0 | 0.0 | 0.0 | 0.00 | 0.00 | 0.00 | 1011.7 | ||
| 20260501231608 | 0 | 0.0 | 0.0 | 0.00 | 0.00 | 0.00 | 1012.1 | ||
| 20260501224558 | 0 | 0.0 | 0.0 | 0.00 | 0.00 | 0.00 | 1011.0 | ||
| 20260501223102 | 0 | 0.0 | 0.0 | 0.00 | 0.00 | 0.00 | 1010.7 | ||
| 20260501221554 | 63 | 68 | 4.3 | 13.0 | 0.00 | 0.00 | 0.00 | 94 | 1010.8 |
| 20260501220054 | 64 | 61 | 7.8 | 17.4 | 0.00 | 0.00 | 0.00 | 92 | 1010.5 |
| 20260501214557 | 65 | 159 | 4.3 | 9.6 | 0.00 | 0.00 | 0.00 | 92 | 1008.6 |
| 20260501213056 | 66 | 155 | 3.5 | 13.0 | 0.00 | 0.00 | 0.00 | 92 | 1008.6 |
| 20260501211556 | 66 | 135 | 1.7 | 8.7 | 0.00 | 0.00 | 0.00 | 93 | 1008.6 |
| 20260501210051 | 66 | 134 | 3.5 | 12.2 | 0.00 | 0.00 | 0.00 | 94 | 1008.7 |
| 20260501204617 | 66 | 160 | 2.6 | 9.6 | 0.00 | 0.00 | 0.00 | 95 | 1008.7 |
| 20260501203052 | 66 | 148 | 1.7 | 10.4 | 0.00 | 0.00 | 0.00 | 95 | 1008.7 |
| 20260501201552 | 66 | 116 | 3.5 | 12.2 | 0.00 | 0.00 | 0.00 | 96 | 1008.8 |
| 20260501200050 | 66 | 50 | 3.5 | 16.5 | 0.00 | 0.00 | 0.00 | 97 | 1008.6 |
| 20260501194552 | 65 | 132 | 3.5 | 10.4 | 0.00 | 0.00 | 0.00 | 96 | 1009.1 |
| 20260501193051 | 65 | 80 | 5.2 | 10.4 | 0.00 | 0.00 | 0.00 | 96 | 1010.2 |
| 20260501191550 | 64 | 0 | 0.0 | 3.5 | 0.00 | 0.00 | 0.00 | 96 | 1010.0 |
| 20260501190050 | 64 | 0 | 0.0 | 2.6 | 0.00 | 0.00 | 0.00 | 95 | 1009.8 |
| 20260501184551 | 64 | 60 | 3.5 | 7.0 | 0.00 | 0.00 | 0.00 | 94 | 1009.6 |
| 20260501183047 | 65 | 53 | 7.0 | 18.2 | 0.00 | 0.00 | 0.00 | 94 | 1010.4 |
| 20260501181555 | 64 | 161 | 1.7 | 9.6 | 0.00 | 0.00 | 0.00 | 94 | 1006.0 |
| 20260501180105 | 64 | 0 | 1.7 | 7.0 | 0.00 | 0.00 | 0.00 | 94 | 1007.6 |
| 20260501174602 | 64 | 123 | 2.6 | 8.7 | 0.00 | 0.00 | 0.00 | 94 | 1009.0 |
| 20260501173057 | 65 | 142 | 2.6 | 6.1 | 0.00 | 0.00 | 0.00 | 94 | 1009.2 |
| 20260501171552 | 0 | 0.0 | 0.0 | 0.00 | 0.00 | 0.00 | 1009.4 | ||
| 20260501170052 | 0 | 0.0 | 0.0 | 0.00 | 0.00 | 0.00 | 1009.5 | ||
| 20260501164558 | 0 | 0.0 | 0.0 | 0.00 | 0.00 | 0.00 | 1010.4 | ||
| 20260501163050 | 0 | 0.0 | 0.0 | 0.00 | 0.00 | 0.00 | 1010.2 | ||
| 20260501161557 | 0 | 0.0 | 0.0 | 0.00 | 0.00 | 0.00 | 1010.1 | ||
| 20260501160059 | 0 | 0.0 | 0.0 | 0.00 | 0.00 | 0.00 | 1010.3 | ||
| 20260501154553 | 0 | 0.0 | 0.0 | 0.00 | 0.00 | 0.00 | 1011.0 | ||
| 20260501153055 | 0 | 0.0 | 0.0 | 0.00 | 0.00 | 0.00 | 1010.9 | ||
| 20260501151558 | 0 | 0.0 | 0.0 | 0.00 | 0.00 | 0.00 | 1011.6 | ||
| 20260501150053 | 0 | 0.0 | 0.0 | 0.00 | 0.00 | 0.00 | 1011.3 | ||
| 20260501144549 | 0 | 0.0 | 0.0 | 0.00 | 0.00 | 0.00 | 1010.7 | ||
| 20260501143056 | 0 | 0.0 | 0.0 | 0.00 | 0.00 | 0.00 | 1010.7 |